N0ZO-13 Weather Reports


time (UTC)temp
C
wind
direction
speed
KPH
gust
KPH
rain 1hr
cm
rain 24hr
cm
rain mn
cm
humidity
%
barometer
mb
20260505040629 15 0.0 0.0 0.00 0.00 0.00 66 1008.6
20260505035703 15 0.0 0.0 0.00 0.00 0.00 66 1008.6
20260505034616 15 187 1.6 1.6 0.00 0.00 0.00 66 1008.6
20260505033625 16 0.0 0.0 0.00 0.00 0.00 64 1008.6
20260505032617 16 187 0.0 1.6 0.00 0.00 0.00 63 1008.5
20260505031626 16 187 0.0 1.6 0.00 0.00 0.00 62 1008.7
20260505030620 16 0.0 0.0 0.00 0.00 0.00 61 1008.6
20260505025710 17 187 0.0 1.6 0.00 0.00 0.00 60 1008.7
20260505024624 17 0.0 0.0 0.00 0.00 0.00 60 1008.5
20260505023618 17 187 0.0 1.6 0.00 0.00 0.00 59 1008.7
20260505022628 17 187 0.0 1.6 0.00 0.00 0.00 58 1008.6
20260505021623 17 187 0.0 1.6 0.00 0.00 0.00 57 1008.6
20260505020618 18 0.0 0.0 0.00 0.00 0.00 55 1008.4
20260505015628 18 0.0 0.0 0.00 0.00 0.00 55 1008.2
20260505014623 18 187 0.0 1.6 0.00 0.00 0.00 55 1008.1
20260505013618 18 209 0.0 1.6 0.00 0.00 0.00 54 1008.2
20260505012628 18 209 0.0 1.6 0.00 0.00 0.00 54 1008.0
20260505011623 18 210 1.6 4.8 0.00 0.00 0.00 53 1008.0
20260505010617 19 195 1.6 3.2 0.00 0.00 0.00 53 1008.1
20260505005648 20 0.0 0.0 0.00 0.00 0.00 53 1007.9
20260505004623 20 208 1.6 1.6 0.00 0.00 0.00 52 1008.0
20260505003617 20 209 0.0 1.6 0.00 0.00 0.00 51 1008.0
20260505002627 21 180 3.2 4.8 0.00 0.00 0.00 50 1007.9
20260505001622 22 0.0 0.0 0.00 0.00 0.00 49 1007.8
20260505000617 22 194 0.0 1.6 0.00 0.00 0.00 47 1007.8
20260504235626 23 161 1.6 3.2 0.00 0.00 0.00 46 1008.0
20260504234621 23 162 3.2 3.2 0.00 0.00 0.00 44 1008.0
20260504233630 23 171 4.8 11.3 0.00 0.00 0.00 44 1007.9
20260504232645 24 190 3.2 3.2 0.00 0.00 0.00 43 1008.0
20260504231619 24 179 6.4 11.3 0.00 0.00 0.00 43 1008.0
20260504230650 25 183 3.2 6.4 0.00 0.00 0.00 42 1008.1
20260504225623 25 132 6.4 9.7 0.00 0.00 0.00 42 1008.3
20260504224637 25 170 6.4 11.3 0.00 0.00 0.00 41 1008.4
20260504223627 25 184 1.6 1.6 0.00 0.00 0.00 41 1008.4
20260504222618 25 221 4.8 11.3 0.00 0.00 0.00 40 1008.2
20260504221628 26 165 8.0 11.3 0.00 0.00 0.00 41 1008.2
20260504220643 26 180 9.7 14.5 0.00 0.00 0.00 41 1008.4
20260504215618 26 205 4.8 9.7 0.00 0.00 0.00 40 1008.5
20260504214627 26 234 9.7 20.9 0.00 0.00 0.00 40 1008.5
20260504213621 26 229 11.3 16.1 0.00 0.00 0.00 42 1008.4
20260504212629 27 191 4.8 9.7 0.00 0.00 0.00 41 1008.6
20260504211623 27 254 9.7 16.1 0.00 0.00 0.00 41 1008.6
20260504210618 27 103 6.4 11.3 0.00 0.00 0.00 41 1008.7
20260504205626 26 196 9.7 17.7 0.00 0.00 0.00 40 1008.7
20260504204620 27 130 8.0 16.1 0.00 0.00 0.00 40 1008.8
20260504203629 27 210 9.7 16.1 0.00 0.00 0.00 39 1008.7
20260504202623 27 233 16.1 29.0 0.00 0.00 0.00 39 1008.9
20260504201617 27 152 9.7 17.7 0.00 0.00 0.00 40 1008.8
20260504200627 27 199 6.4 16.1 0.00 0.00 0.00 40 1008.9
20260504195620 27 228 3.2 9.7 0.00 0.00 0.00 43 1009.2
20260504194629 26 181 9.7 16.1 0.00 0.00 0.00 41 1009.4
20260504193624 27 183 4.8 12.9 0.00 0.00 0.00 42 1009.4
20260504192618 26 193 6.4 9.7 0.00 0.00 0.00 44 1009.6
20260504191708 26 240 12.9 24.1 0.00 0.00 0.00 44 1009.5
20260504190622 26 149 8.0 17.7 0.00 0.00 0.00 45 1010.0
20260504185616 26 213 6.4 11.3 0.00 0.00 0.00 44 1010.0
20260504184625 26 108 4.8 9.7 0.00 0.00 0.00 44 1010.2
20260504183619 26 124 8.0 16.1 0.00 0.00 0.00 44 1010.3
20260504182629 26 112 6.4 11.3 0.00 0.00 0.00 44 1010.5
20260504181624 26 318 1.6 3.2 0.00 0.00 0.00 45 1010.8
20260504180618 26 301 6.4 9.7 0.00 0.00 0.00 44 1010.8
20260504175628 26 275 4.8 6.4 0.00 0.00 0.00 44 1010.8
20260504174622 26 319 1.6 3.2 0.00 0.00 0.00 45 1010.9
20260504173617 26 91 1.6 1.6 0.00 0.00 0.00 46 1011.1
20260504172626 26 178 4.8 11.3 0.00 0.00 0.00 47 1011.1
20260504171621 26 222 4.8 6.4 0.00 0.00 0.00 47 1011.3
20260504170616 26 113 3.2 9.7 0.00 0.00 0.00 47 1011.4
20260504150625 23 246 6.4 9.7 0.00 0.00 0.00 55 1012.1
20260504140620 20 203 4.8 9.7 0.00 0.00 0.00 66 1012.6
20260504130625 15 109 1.6 3.2 0.00 0.00 0.00 76 1012.8
20260504110618 7 303 1.6 3.2 0.00 0.00 0.00 86 1012.1
20260504081647 9 0.0 0.0 0.00 0.00 0.00 81 1011.9
20260504080640 9 0.0 0.0 0.00 0.00 0.00 81 1011.9
20260504050617 11 0.0 0.0 0.00 0.00 0.00 76 1012.9
20260504045726 11 0.0 0.0 0.00 0.00 0.00 76 1013.0
20260504044620 11 0.0 0.0 0.00 0.00 0.00 75 1013.0
20260504043649 11 279 0.0 1.6 0.00 0.00 0.00 74 1013.2
20260504042623 11 279 0.0 1.6 0.00 0.00 0.00 74 1013.2
20260504041616 11 0.0 0.0 0.00 0.00 0.00 73 1013.4